Etusivu
METAR-TAF:

METAR-TAF

Lentoasemat :

Owatonna Degner Regional Airport

Owatonna, Minnesota, Yhdysvallat

Leveyspiiri: 44-07N, Pituuspiiri: 093-15W, korkeus merenpinnasta: 350 m

Tämänhetkinen sää

Tämä raportti tehtiin 17 minuuttia sitten, kello 19.34 UTC
Tuuli 8 kn luoteesta
Lämpötila -5°C
Kosteus 73%
Ilmanpaine 1024 hPa
Näkyvyys: 16.1 km
selkeää

METAR: KOWA 261934Z AUTO 31008KT 10SM CLR M05/M09 A3024 RMK AO2

Aika: 13:51 (19:51 UTC)


TAF: puuttuu

Säähavainnot ja -ennusteet yli 4000 lentoasemalta (METAR- ja TAF-raportit).

Käytössä olevat sääasemat on merkitty karttaan keltaisilla ja punaisilla pisteillä.

Aseta hiiri pisteen päälle nähdäksesi sääaseman nimen.

Klikkaa sitten nähdäksesi säähavainnot ja -ennusteet.

Kartan vaihtaminen: klikkaa mustalla rastilla varustettuja vihreitä pisteitä, niin voit zoomata sisään; viivalla varustettua vihreää pistettä, niin voit zoomata ulos tai vihreitä nuolia, niin pääset viereisille kartoille.


METAR-TAF: